| time (UTC) | temp F | wind direction | speed MPH | gust MPH | rain 1hr in | rain 24hr in | rain mn in | humidity % | barometer mb |
| 20260506044307 | 52 | 0.0 | 0.0 | 0.00 | 0.00 | 0.00 | 87 | 999.4 | |
| 20260506042807 | 52 | 0.0 | 0.0 | 0.00 | 0.00 | 0.00 | 87 | 999.5 | |
| 20260506041307 | 52 | 0.0 | 0.0 | 0.00 | 0.00 | 0.00 | 87 | 999.8 | |
| 20260506035807 | 52 | 0.0 | 0.0 | 0.00 | 0.00 | 0.00 | 87 | 1000.4 | |
| 20260506034307 | 52 | 0.0 | 0.0 | 0.00 | 0.00 | 0.00 | 87 | 1000.0 | |
| 20260506032807 | 52 | 0.0 | 0.0 | 0.00 | 0.00 | 0.00 | 87 | 1000.3 | |
| 20260506031307 | 52 | 0.0 | 0.0 | 0.00 | 0.00 | 0.00 | 87 | 1000.4 | |
| 20260506025807 | 52 | 0.0 | 0.0 | 0.00 | 0.00 | 0.00 | 87 | 1000.0 | |
| 20260506024308 | 52 | 0.0 | 0.0 | 0.00 | 0.00 | 0.00 | 87 | 1000.1 | |
| 20260506022807 | 53 | 0.0 | 0.0 | 0.00 | 0.00 | 0.00 | 86 | 1000.4 | |
| 20260506021307 | 53 | 0.0 | 0.0 | 0.00 | 0.00 | 0.00 | 86 | 1000.8 | |
| 20260506015807 | 53 | 0.0 | 0.0 | 0.00 | 0.00 | 0.00 | 86 | 1000.8 | |
| 20260506014307 | 53 | 0.0 | 0.0 | 0.00 | 0.00 | 0.00 | 86 | 1000.7 | |
| 20260506012807 | 53 | 0.0 | 0.0 | 0.00 | 0.00 | 0.00 | 86 | 1000.8 | |
| 20260506011307 | 53 | 0.0 | 0.0 | 0.00 | 0.00 | 0.00 | 86 | 1001.3 | |
| 20260506005807 | 53 | 0.0 | 0.0 | 0.00 | 0.00 | 0.00 | 85 | 1001.2 | |
| 20260506004307 | 53 | 0.0 | 0.0 | 0.00 | 0.00 | 0.00 | 85 | 1001.6 | |
| 20260506002807 | 53 | 0.0 | 0.0 | 0.00 | 0.00 | 0.00 | 85 | 1001.5 | |
| 20260506001307 | 54 | 0.0 | 0.0 | 0.00 | 0.00 | 0.00 | 85 | 1001.4 | |
| 20260505235807 | 54 | 0.0 | 0.0 | 0.00 | 0.00 | 0.00 | 85 | 1002.0 | |
| 20260505234307 | 54 | 0.0 | 0.0 | 0.00 | 0.00 | 0.00 | 85 | 1002.0 | |
| 20260505232807 | 54 | 0.0 | 0.0 | 0.00 | 0.00 | 0.00 | 85 | 1002.3 | |
| 20260505231307 | 54 | 0.0 | 0.0 | 0.00 | 0.00 | 0.00 | 85 | 1002.0 | |
| 20260505225807 | 54 | 0.0 | 0.0 | 0.00 | 0.00 | 0.00 | 84 | 1002.2 | |
| 20260505224307 | 54 | 0.0 | 0.0 | 0.00 | 0.00 | 0.00 | 84 | 1002.1 | |
| 20260505222807 | 55 | 0.0 | 0.0 | 0.00 | 0.00 | 0.00 | 84 | 1002.5 | |
| 20260505221307 | 55 | 0.0 | 0.0 | 0.00 | 0.00 | 0.00 | 84 | 1002.8 | |
| 20260505215807 | 55 | 0.0 | 0.0 | 0.00 | 0.00 | 0.00 | 84 | 1002.1 | |
| 20260505214307 | 55 | 0.0 | 0.0 | 0.00 | 0.00 | 0.00 | 84 | 1002.5 | |
| 20260505212807 | 55 | 0.0 | 0.0 | 0.00 | 0.00 | 0.00 | 84 | 1002.3 | |
| 20260505211307 | 55 | 0.0 | 0.0 | 0.00 | 0.00 | 0.00 | 83 | 1002.8 | |
| 20260505205807 | 56 | 0.0 | 0.0 | 0.00 | 0.00 | 0.00 | 83 | ||
| 20260505204307 | 56 | 0.0 | 0.0 | 0.00 | 0.00 | 0.00 | 83 | ||
| 20260505202807 | 56 | 0.0 | 0.0 | 0.00 | 0.00 | 0.00 | 83 | ||
| 20260505201307 | 56 | 0.0 | 0.0 | 0.00 | 0.00 | 0.00 | 83 | ||
| 20260505195807 | 57 | 0.0 | 0.0 | 0.00 | 0.00 | 0.00 | 82 | 1002.3 | |
| 20260505194307 | 58 | 0.0 | 0.0 | 0.00 | 0.00 | 0.00 | 82 | 1002.4 | |
| 20260505192807 | 58 | 0.0 | 0.0 | 0.00 | 0.00 | 0.00 | 81 | 1002.6 | |
| 20260505191307 | 59 | 0.0 | 0.0 | 0.00 | 0.00 | 0.00 | 80 | 1002.4 | |
| 20260505185807 | 59 | 0.0 | 0.0 | 0.00 | 0.00 | 0.00 | 80 | 1002.1 | |
| 20260505184308 | 60 | 0.0 | 0.0 | 0.00 | 0.00 | 0.00 | 79 | 1002.2 | |
| 20260505182807 | 61 | 0.0 | 0.0 | 0.00 | 0.00 | 0.00 | 78 | 1001.9 | |
| 20260505181307 | 61 | 0.0 | 0.0 | 0.00 | 0.00 | 0.00 | 77 | 1002.5 | |
| 20260505175807 | 62 | 0.0 | 0.0 | 0.00 | 0.00 | 0.00 | 76 | 1002.4 | |
| 20260505174307 | 62 | 0.0 | 0.0 | 0.00 | 0.00 | 0.00 | 76 | 1002.3 | |
| 20260505172807 | 63 | 0.0 | 0.0 | 0.00 | 0.00 | 0.00 | 75 | 1002.1 | |
| 20260505171307 | 64 | 0.0 | 0.0 | 0.00 | 0.00 | 0.00 | 74 | 1002.1 | |
| 20260505165807 | 64 | 0.0 | 0.0 | 0.00 | 0.00 | 0.00 | 73 | 1002.1 | |
| 20260505164307 | 65 | 0.0 | 0.0 | 0.00 | 0.00 | 0.00 | 72 | 1002.6 | |
| 20260505162807 | 64 | 0.0 | 0.0 | 0.00 | 0.00 | 0.00 | 72 | 1002.5 | |
| 20260505161307 | 64 | 0.0 | 0.0 | 0.00 | 0.00 | 0.00 | 73 | 1002.3 | |
| 20260505152807 | 65 | 0.0 | 0.0 | 0.00 | 0.00 | 0.00 | 71 | 1003.0 | |
| 20260505151307 | 66 | 0.0 | 0.0 | 0.00 | 0.00 | 0.00 | 71 | 1002.8 | |
| 20260505124307 | 67 | 0.0 | 0.0 | 0.00 | 0.00 | 0.00 | 68 | 1003.4 | |
| 20260505122807 | 67 | 0.0 | 0.0 | 0.00 | 0.00 | 0.00 | 70 | 1003.5 | |
| 20260505121307 | 67 | 0.0 | 0.0 | 0.00 | 0.00 | 0.00 | 69 | 1004.6 | |
| 20260505114307 | 67 | 0.0 | 0.0 | 0.00 | 0.00 | 0.00 | 69 | 1004.5 | |
| 20260505112807 | 67 | 0.0 | 0.0 | 0.00 | 0.00 | 0.00 | 69 | 1004.0 | |
| 20260505111307 | 67 | 0.0 | 0.0 | 0.00 | 0.00 | 0.00 | 70 | 1004.1 | |
| 20260505101307 | 66 | 0.0 | 0.0 | 0.00 | 0.00 | 0.00 | 68 | 1004.4 | |
| 20260505095807 | 66 | 0.0 | 0.0 | 0.00 | 0.00 | 0.00 | 70 | 1003.9 | |
| 20260505094307 | 65 | 0.0 | 0.0 | 0.00 | 0.00 | 0.00 | 71 | 1004.0 | |
| 20260505092807 | 65 | 0.0 | 0.0 | 0.00 | 0.00 | 0.00 | 72 | 1005.4 | |
| 20260505091307 | 63 | 0.0 | 0.0 | 0.00 | 0.00 | 0.00 | 74 | 1004.4 | |
| 20260505085807 | 63 | 0.0 | 0.0 | 0.00 | 0.00 | 0.00 | 75 | 1004.2 | |
| 20260505084307 | 62 | 0.0 | 0.0 | 0.00 | 0.00 | 0.00 | 76 | 1005.6 | |
| 20260505082807 | 61 | 0.0 | 0.0 | 0.00 | 0.00 | 0.00 | 78 | 1005.0 | |
| 20260505081307 | 60 | 0.0 | 0.0 | 0.00 | 0.00 | 0.00 | 78 | 1004.8 | |
| 20260505075807 | 59 | 0.0 | 0.0 | 0.00 | 0.00 | 0.00 | 79 | 1004.3 | |
| 20260505074306 | 58 | 0.0 | 0.0 | 0.00 | 0.00 | 0.00 | 80 | 1004.8 | |
| 20260505072807 | 58 | 0.0 | 0.0 | 0.00 | 0.00 | 0.00 | 79 | 1004.6 | |
| 20260505071307 | 58 | 0.0 | 0.0 | 0.00 | 0.00 | 0.00 | 79 | 1005.1 | |
| 20260505065807 | 58 | 0.0 | 0.0 | 0.00 | 0.00 | 0.00 | 80 | 1004.6 | |
| 20260505064307 | 58 | 0.0 | 0.0 | 0.00 | 0.00 | 0.00 | 81 | 1004.2 | |
| 20260505062807 | 58 | 0.0 | 0.0 | 0.00 | 0.00 | 0.00 | 82 | 1005.2 | |
| 20260505061307 | 56 | 0.0 | 0.0 | 0.00 | 0.00 | 0.00 | 82 | 1005.3 | |
| 20260505055807 | 56 | 0.0 | 0.0 | 0.00 | 0.00 | 0.00 | 83 | 1005.1 | |
| 20260505054307 | 56 | 0.0 | 0.0 | 0.00 | 0.00 | 0.00 | 83 | 1005.1 | |
| 20260505052807 | 56 | 0.0 | 0.0 | 0.00 | 0.00 | 0.00 | 83 | 1005.1 | |
| 20260505051307 | 56 | 0.0 | 0.0 | 0.00 | 0.00 | 0.00 | 83 | 1005.0 |